Frankfort, MI

11:25 PM EDT on August 24, 2016 (GMT -0400)
Frankfort

Weather History for KFKS - April, 2014

Change the Weather History Date:

Sunday, April 6, 2014

  Actual Average (KTVC) Record (KTVC)
Temperature  
Mean Temperature 40 °F 39 °F  
Max Temperature 47 °F 49 °F 80 °F (1991)
Min Temperature 34 °F 29 °F 4 °F (2003)
Degree Days  
Heating Degree Days 24 26  
Month to date heating degree days 162  
Since 1 July heating degree days 6564  
Cooling Degree Days 0 0  
Month to date cooling degree days 0  
Year to date cooling degree days 0  
Moisture  
Dew Point 27 °F    
Average Humidity 58    
Maximum Humidity 72    
Minimum Humidity 45    
Precipitation  
Precipitation 0.00 in 0.10 in 0.91 in (1958)
Month to date precipitation 0.54  
Year to date precipitation 6.72  
Sea Level Pressure  
Sea Level Pressure 30.05 in    
Wind  
Wind Speed 7 mph (SSW)    
Max Wind Speed 14 mph    
Max Gust Speed 23 mph    
Visibility 10 miles    
Events      
T = Trace of Precipitation, MM = Missing Value Source: NWS Daily Summary

Daily Weather History Graph

Daily Weather History Graph

Search for Another Location

Airport or City:

Trip Planner

Search our weather history database for the weather conditions in past years. The results will help you decide how hot, cold, wet, or windy it might be!

Date:

Astronomy

Apr. 06, 2014 Rise Set
Actual Time 7:16 AM EDT 8:18 PM EDT
Civil Twilight 6:46 AM EDT 8:48 PM EDT
Nautical Twilight 6:11 AM EDT 9:24 PM EDT
Astronomical Twilight 5:33 AM EDT 10:01 PM EDT
Moon 12:09 PM EDT (4/6) 2:21 AM EDT (4/6)
Length of Visible Light 14h 01m
Length of Day
13h 01m
Waxing Crescent, 43% of the Moon is Illuminated
Apr 6
Waxing Crescent
Apr 7
First Quarter
Apr 15
Full
Apr 22
Last Quarter
Apr 29
New

Hourly Weather History & Observations

Time (EDT) Temp. Windchill Dew Point Humidity Pressure Visibility Wind Dir Wind Speed Gust Speed Precip Events Conditions
12:15 AM 34.9 °F 29.9 °F 23.9 °F 64% 30.12 in 10.0 mi SSW 5.8 mph - N/A   Clear
12:35 AM 34.9 °F 29.9 °F 23.9 °F 64% 30.11 in 10.0 mi SSW 5.8 mph - N/A   Clear
12:55 AM 34.5 °F 29.4 °F 23.9 °F 65% 30.11 in 10.0 mi SSW 5.8 mph - N/A   Clear
1:16 AM 34.9 °F 32.0 °F 23.5 °F 63% 30.11 in 10.0 mi South 3.5 mph - N/A   Clear
1:36 AM 35.6 °F 29.9 °F 23.0 °F 60% 30.11 in 10.0 mi South 6.9 mph - N/A   Clear
1:56 AM 36.0 °F 31.1 °F 22.6 °F 58% 30.11 in 10.0 mi South 5.8 mph 17.3 mph N/A   Clear
2:16 AM 36.0 °F 29.0 °F 22.5 °F 58% 30.10 in 10.0 mi SSW 9.2 mph 18.4 mph N/A   Clear
2:36 AM 36.1 °F 29.3 °F 22.1 °F 57% 30.10 in 10.0 mi SSW 9.2 mph - N/A   Clear
2:56 AM 36.5 °F 29.7 °F 21.6 °F 55% 30.10 in 10.0 mi SSW 9.2 mph - N/A   Clear
3:11 AM 36.5 °F 29.7 °F 21.7 °F 55% 30.09 in 10.0 mi SSW 9.2 mph 17.3 mph N/A   Clear
3:31 AM 36.9 °F 31.4 °F 22.1 °F 55% 30.09 in 10.0 mi SSW 6.9 mph 17.3 mph N/A   Clear
3:51 AM 36.7 °F 29.9 °F 22.6 °F 57% 30.09 in 10.0 mi SSW 9.2 mph 16.1 mph N/A   Clear
4:12 AM 36.7 °F 30.5 °F 23.4 °F 59% 30.09 in 10.0 mi SSW 8.1 mph 17.3 mph N/A   Clear
4:32 AM 36.7 °F 31.2 °F 24.1 °F 60% 30.09 in 10.0 mi SSW 6.9 mph - N/A   Clear
4:52 AM 36.5 °F 31.0 °F 24.6 °F 62% 30.09 in 10.0 mi SSW 6.9 mph - N/A   Clear
5:12 AM 36.1 °F 32.3 °F 25.3 °F 65% 30.09 in 10.0 mi South 4.6 mph - N/A   Clear
5:32 AM 36.5 °F 32.7 °F 25.7 °F 65% 30.09 in 10.0 mi South 4.6 mph - N/A   Clear
5:52 AM 36.0 °F 32.1 °F 26.2 °F 68% 30.09 in 10.0 mi South 4.6 mph - N/A   Clear
6:12 AM 36.0 °F 31.1 °F 26.6 °F 69% 30.10 in 10.0 mi SSW 5.8 mph - N/A   Clear
6:32 AM 35.8 °F 30.9 °F 27.0 °F 70% 30.09 in 10.0 mi South 5.8 mph - N/A   Clear
6:52 AM 35.4 °F - 27.0 °F 71% 30.09 in 10.0 mi Calm Calm - N/A   Clear
7:13 AM 35.4 °F - 27.3 °F 72% 30.10 in 10.0 mi Calm Calm - N/A   Clear
7:33 AM 36.0 °F 32.1 °F 27.5 °F 71% 30.10 in 10.0 mi South 4.6 mph - N/A   Clear
7:53 AM 36.0 °F 33.3 °F 27.9 °F 72% 30.10 in 10.0 mi South 3.5 mph - N/A   Clear
8:13 AM 37.2 °F 33.6 °F 28.2 °F 70% 30.10 in 10.0 mi SSW 4.6 mph - N/A   Clear
8:33 AM 37.8 °F 34.2 °F 28.4 °F 69% 30.10 in 10.0 mi South 4.6 mph - N/A   Clear
8:53 AM 38.5 °F 33.4 °F 28.4 °F 67% 30.11 in 10.0 mi SSW 6.9 mph - N/A   Clear
9:13 AM 39.6 °F 34.7 °F 28.8 °F 65% 30.11 in 10.0 mi SSW 6.9 mph - N/A   Clear
9:33 AM 39.6 °F 33.5 °F 28.8 °F 65% 30.11 in 10.0 mi SSW 9.2 mph - N/A   Clear
9:54 AM 40.3 °F 34.4 °F 28.4 °F 63% 30.11 in 10.0 mi SW 9.2 mph 16.1 mph N/A   Clear
10:14 AM 41.2 °F 35.5 °F 28.4 °F 60% 30.11 in 10.0 mi SSW 9.2 mph 16.1 mph N/A   Clear
10:34 AM 41.4 °F 34.7 °F 28.9 °F 61% 30.11 in 10.0 mi SSW 11.5 mph 18.4 mph N/A   Clear
10:54 AM 41.7 °F 36.1 °F 28.9 °F 61% 30.11 in 10.0 mi SW 9.2 mph 17.3 mph N/A   Clear
11:14 AM 42.1 °F 35.7 °F 28.9 °F 60% 30.10 in 10.0 mi SSW 11.5 mph 19.6 mph N/A   Clear
11:54 AM 43.0 °F 37.7 °F 28.6 °F 57% 30.09 in 10.0 mi SW 9.2 mph 17.3 mph N/A   Clear
12:15 PM 43.7 °F 38.1 °F 28.6 °F 55% 30.09 in 10.0 mi SSW 10.4 mph 19.6 mph N/A   Clear
12:35 PM 44.2 °F 38.8 °F 28.9 °F 55% 30.08 in 10.0 mi SSW 10.4 mph 18.4 mph N/A   Clear
12:55 PM 45.0 °F 38.5 °F 29.3 °F 54% 30.08 in 10.0 mi SSW 13.8 mph 18.4 mph N/A   Clear
1:15 PM 45.7 °F 41.0 °F 30.2 °F 55% 30.07 in 10.0 mi South 9.2 mph 16.1 mph N/A   Clear
1:35 PM 46.8 °F - 30.2 °F 53% 30.07 in 10.0 mi SSW 12.7 mph 17.3 mph N/A   Clear
1:55 PM 46.6 °F - 30.2 °F 53% 30.06 in 10.0 mi South 10.4 mph 20.7 mph N/A   Clear
2:16 PM 46.9 °F - 30.9 °F 54% 30.06 in 10.0 mi South 12.7 mph 18.4 mph N/A   Clear
2:36 PM 47.1 °F - 30.7 °F 53% 30.04 in 10.0 mi SSW 11.5 mph 18.4 mph N/A   Clear
2:56 PM 47.3 °F - 30.7 °F 53% 30.03 in 10.0 mi South 11.5 mph 18.4 mph N/A   Clear
3:16 PM 47.1 °F - 30.7 °F 53% 30.03 in 10.0 mi SSW 11.5 mph 23.0 mph N/A   Clear
3:36 PM 46.6 °F - 30.7 °F 54% 30.02 in 10.0 mi SW 11.5 mph 20.7 mph N/A   Clear
3:51 PM 46.6 °F - 30.4 °F 53% 30.01 in 10.0 mi SSW 11.5 mph 20.7 mph N/A   Clear
4:11 PM 46.8 °F - 30.4 °F 53% 30.00 in 10.0 mi SW 11.5 mph 17.3 mph N/A   Clear
4:32 PM 46.4 °F 40.4 °F 30.4 °F 54% 30.00 in 10.0 mi SSW 13.8 mph 20.7 mph N/A   Clear
4:52 PM 46.2 °F 41.2 °F 30.2 °F 54% 29.99 in 10.0 mi SSW 10.4 mph 19.6 mph N/A   Clear
5:12 PM 46.4 °F 41.1 °F 30.2 °F 53% 29.98 in 10.0 mi SSW 11.5 mph 17.3 mph N/A   Clear
5:32 PM 45.9 °F 40.0 °F 30.0 °F 54% 29.98 in 10.0 mi SSW 12.7 mph 23.0 mph N/A   Clear
5:52 PM 45.5 °F 40.3 °F 29.3 °F 53% 29.96 in 10.0 mi SSW 10.4 mph 18.4 mph N/A   Clear
6:12 PM 46.4 °F 41.9 °F 29.8 °F 53% 29.96 in 10.0 mi South 9.2 mph - N/A   Clear
6:32 PM 45.7 °F 42.0 °F 29.8 °F 54% 29.96 in 10.0 mi SSW 6.9 mph - N/A   Clear
6:52 PM 43.9 °F - 29.8 °F 58% 29.97 in 10.0 mi Calm Calm - N/A   Clear
7:13 PM 43.3 °F 39.9 °F 29.8 °F 59% 29.97 in 10.0 mi South 5.8 mph - N/A   Clear
7:33 PM 44.2 °F - 29.3 °F 56% 29.97 in 10.0 mi Calm Calm - N/A   Clear
7:53 PM 44.1 °F - 29.8 °F 57% 29.96 in 10.0 mi Calm Calm - N/A   Clear
8:13 PM 43.2 °F - 30.0 °F 60% 29.96 in 10.0 mi Calm Calm - N/A   Clear
8:33 PM 41.0 °F - 30.0 °F 65% 29.96 in 10.0 mi Calm Calm - N/A   Clear
8:53 PM 43.2 °F - 28.2 °F 56% 29.97 in 10.0 mi Calm Calm - N/A   Clear
9:13 PM 45.5 °F 41.8 °F 28.0 °F 51% 29.97 in 10.0 mi South 6.9 mph - N/A   Clear
9:33 PM 46.4 °F 41.9 °F 27.5 °F 48% 29.97 in 10.0 mi South 9.2 mph - N/A   Scattered Clouds
9:53 PM 46.0 °F 41.4 °F 27.0 °F 47% 29.97 in 10.0 mi South 9.2 mph 17.3 mph N/A   Mostly Cloudy
10:14 PM 46.0 °F 41.9 °F 26.6 °F 47% 29.97 in 10.0 mi South 8.1 mph 16.1 mph N/A   Scattered Clouds
10:34 PM 45.9 °F 43.6 °F 26.4 °F 47% 29.97 in 10.0 mi South 4.6 mph - N/A   Clear
10:54 PM 45.9 °F 42.9 °F 25.9 °F 46% 29.97 in 10.0 mi South 5.8 mph - N/A   Clear
11:14 PM 46.0 °F 43.9 °F 25.9 °F 45% 29.97 in 10.0 mi South 4.6 mph - N/A   Clear
11:36 PM 45.7 °F 42.7 °F 26.2 °F 47% 29.97 in 10.0 mi South 5.8 mph - N/A   Clear
11:56 PM 45.5 °F 41.8 °F 26.2 °F 47% 29.96 in 10.0 mi South 6.9 mph - N/A   Clear